This is the latest recevied weather packets stored in our database for station/object WX7FGZ-3. If no packets are shown the sender has not sent any weather packets the latest 10 day(s).
| Time | Temp. | Humidity | Pressure | Rain* | Wind** | Luminosity | Snow |
|---|---|---|---|---|---|---|---|
| 1777622086 | -1.11° C | 56% | 1011.9 hPa | 0 mm | - | - | - |
| 1777621785 | -1.11° C | 55% | 1011.9 hPa | 0 mm | - | - | - |
| 1777621184 | -0.56° C | 50% | 1012 hPa | 0 mm | - | - | - |
| 1777620884 | -0.56° C | 49% | 1012 hPa | 0 mm | - | - | - |
| 1777620584 | 0° C | 50% | 1012 hPa | 0 mm | - | - | - |
| 1777620284 | 0° C | 50% | 1011.9 hPa | 0 mm | - | - | - |
| 1777619983 | 0° C | 51% | 1011.9 hPa | 0 mm | - | - | - |
| 1777619383 | -0.56° C | 51% | 1011.7 hPa | 0 mm | - | - | - |
| 1777618482 | 0° C | 51% | 1011.7 hPa | 0 mm | - | - | - |
| 1777618182 | 0° C | 48% | 1011.7 hPa | 0 mm | - | - | - |
| 1777617282 | 0.56° C | 47% | 1011.3 hPa | 0 mm | - | - | - |
| 1777616080 | 0.56° C | 49% | 1011.3 hPa | 0 mm | - | - | - |
| 1777615779 | 0.56° C | 43% | 1011.2 hPa | 0 mm | - | - | - |
| 1777615479 | 0.56° C | 41% | 1011.3 hPa | 0 mm | - | - | - |
| 1777614879 | 0.56° C | 44% | 1011.1 hPa | 0 mm | - | - | - |
| 1777613978 | 1.11° C | 40% | 1011.1 hPa | 0 mm | - | - | - |
| 1777613678 | 1.11° C | 45% | 1011.1 hPa | 0 mm | - | - | - |
| 1777613077 | 1.67° C | 35% | 1011 hPa | 0 mm | - | - | - |
| 1777611875 | 1.11° C | 41% | 1010.9 hPa | 0 mm | - | - | - |
| 1777611576 | 1.11° C | 34% | 1010.8 hPa | 0 mm | - | - | - |
| 1777611276 | 1.11° C | 35% | 1010.8 hPa | 0 mm | - | - | - |
| 1777610975 | 1.11° C | 33% | 1010.8 hPa | 0 mm | - | - | - |
| 1777610374 | 1.67° C | 34% | 1011 hPa | 0 mm | - | - | - |
| 1777610075 | 2.22° C | 33% | 1010.8 hPa | 0 mm | - | - | - |
| 1777609773 | 2.22° C | 33% | 1010.8 hPa | 0 mm | - | - | - |
* Rain latest hour (hover to see other rain measurements)
** Current wind speed in m/s (hover to see current wind gust speed)